SCP
1 0 1 1 1 0 0 0 0 0 0 0 0 0 0 0 1 1 1 1 1 1 1 1 2 2 1 1 2 1 1 1 1 1 1 1 1 1 1 1 1 1 1 1 1 1 1 1 1
0 1 1 1 1 0 0 0 0 0 1 1 0 0 0 0 1 1 1 1 1 1 1 1 2 2 1 1 2 1 1 1 1 1 1 1 1 1 1 0 0 1 1 1 1 1 1 1 1
1 1 1 1 1 0 0 0 0 0 1 1 0 0 0 0 0 1 1 1 1 1 1 1 2 2 1 1 1 1 1 1 1 1 1 1 1 1 1 0 0 0 1 1 1 1 1 1 1
1 1 1 1 1 0 0 0 0 0 0 0 0 0 0 0 1 1 1 1 1 1 1 1 2 2 1 1 1 1 2 2 2 1 1 1 1 1 1 1 1 1 1 1 1 1 1 1 1
2 1 1 1 1 0 0 0 0 1 0 0 0 0 0 1 1 1 1 1 1 1 1 1 1 1 1 1 1 1 2 1 1 1 1 1 1 1 1 1 1 1 1 1 1 1 1 1 1
2 2 1 1 1 0 0 0 1 1 1 0 0 0 0 1 1 1 1 1 1 1 1 1 1 1 1 1 1 1 1 1 1 1 1 2 1 1 1 1 1 1 1 1 1 1 1 1 1
2 1 1 1 1 0 0 0 1 1 1 0 0 0 1 1 1 1 1 1 1 1 1 1 1 1 1 1 1 1 1 1 1 1 1 2 2 1 1 1 1 1 1 1 1 1 1 1 1
1 1 1 1 0 0 0 0 1 1 1 0 0 0 1 2 2 2 1 1 1 1 1 1 1 1 1 1 1 1 1 1 1 1 1 2 1 1 1 1 1 1 1 1 1 1 1 1 1
1 1 1 1 0 0 0 0 1 1 1 1 0 1 1 2 3 3 2 1 1 1 1 1 1 1 1 1 1 1 1 1 1 1 1 1 1 1 1 1 1 1 1 1 1 1 1 1 1
2 1 1 1 1 0 0 0 1 1 1 1 1 1 2 2 3 3 3 2 1 1 1 1 1 1 1 1 1 1 1 1 1 1 1 1 1 1 1 1 1 1 1 1 1 1 1 1 1
2 1 1 1 1 0 0 0 1 1 1 1 1 2 2 3 4 4 3 2 2 1 1 1 1 1 1 1 1 1 1 1 1 1 1 1 1 1 1 1 1 1 1 1 1 1 1 1 1
1 1 1 1 1 1 0 1 1 1 1 2 3 4 4 4 4 4 3 2 2 1 1 1 1 1 1 1 1 1 1 1 1 1 1 1 1 1 1 1 1 1 1 1 1 1 1 1 1
1 1 0 0 1 1 1 1 1 1 2 3 4 5 5 4 4 3 3 3 2 1 2 1 1 1 1 1 1 1 1 1 1 1 1 1 0 0 0 1 1 1 1 1 1 1 0 0 0
1 1 0 0 1 1 1 1 1 1 2 2 3 3 3 3 3 3 3 3 2 2 2 2 2 2 1 1 1 1 1 1 1 1 1 1 1 0 0 0 0 1 1 0 0 0 0 0 0
0 1 0 0 1 1 1 1 1 2 1 1 1 2 2 2 2 2 2 3 3 3 2 2 2 2 2 1 1 1 1 1 1 1 1 1 1 1 0 0 0 0 0 0 0 0 0 0 0
0 0 0 0 0 1 2 2 2 2 2 1 2 2 3 2 1 1 2 3 4 3 2 2 2 2 2 2 1 1 1 1 1 1 1 1 1 1 0 0 0 0 0 0 0 0 0 0 0
0 0 0 0 0 1 2 2 2 2 2 3 3 4 3 2 1 1 2 3 4 3 3 3 3 3 2 2 2 1 1 1 1 1 1 1 1 1 1 0 0 0 0 0 0 0 0 0 0
0 0 0 0 0 1 1 2 2 2 3 4 5 5 3 2 1 1 2 2 3 3 3 3 3 3 3 2 2 2 1 1 1 1 1 1 1 1 1 0 0 0 0 0 0 0 0 0 0
0 0 0 0 0 1 1 1 1 1 2 4 5 5 4 2 1 1 2 2 2 3 3 4 4 3 3 3 2 2 1 1 1 1 1 1 1 1 1 1 0 0 1 1 1 1 1 0 0
0 0 0 0 0 1 1 1 1 1 1 2 3 4 3 1 1 1 2 2 2 3 5 5 5 4 3 3 2 2 1 1 1 1 1 1 1 1 1 1 1 1 1 1 1 1 1 1 1
0 0 0 0 1 1 1 1 1 1 1 2 3 2 2 1 1 1 2 3 3 5 6 6 6 4 4 3 3 2 2 1 1 1 1 1 1 2 2 2 2 1 1 1 1 1 1 1 1
0 0 0 0 0 1 1 1 1 1 1 2 3 3 2 1 1 1 2 4 4 5 6 7 6 5 4 3 3 3 2 2 1 1 1 1 1 2 2 3 2 2 2 2 2 2 1 1 1
0 0 0 0 0 0 1 1 1 1 1 1 3 4 3 2 1 2 4 5 5 5 6 6 5 4 4 4 3 3 3 2 2 1 1 1 1 1 2 3 3 2 2 2 2 2 2 2 2
0 0 0 0 0 0 0 1 1 1 1 1 2 4 4 3 3 4 6 7 6 5 6 6 5 4 4 4 4 4 3 3 2 1 1 1 1 1 2 2 2 2 3 3 2 2 2 2 2
0 0 0 0 0 0 0 0 0 0 1 1 2 4 5 5 4 5 7 7 5 5 6 6 4 4 4 4 4 4 3 3 2 1 1 1 1 1 1 1 2 2 2 2 2 3 3 3 3
0 0 0 0 0 0 0 0 0 0 1 1 2 3 5 6 5 6 7 5 4 4 5 5 4 3 4 4 4 4 3 3 2 2 1 1 1 1 1 1 1 1 2 2 2 2 3 4 4
0 0 0 0 0 0 0 0 0 1 1 1 2 3 4 5 5 6 6 5 4 4 4 4 4 4 4 4 4 4 3 2 2 1 1 1 1 1 1 1 1 1 1 1 2 2 3 3 4
0 0 0 0 0 0 0 0 0 1 1 1 2 2 4 5 5 6 6 5 4 4 4 4 4 4 3 3 3 3 2 2 1 1 1 1 1 1 1 1 1 1 1 2 2 2 3 3 3
0 0 0 0 0 0 0 1 1 1 1 1 2 2 3 5 7 8 8 6 5 5 4 4 4 3 2 2 3 2 2 2 1 1 1 1 1 1 1 1 1 1 1 2 2 3 3 3 3
0 0 0 0 0 0 0 1 1 1 1 1 2 3 4 6 8 9 9 8 6 5 5 4 3 3 2 2 2 3 2 2 1 1 1 1 1 1 2 2 2 2 2 2 3 3 4 3 3
Wind_Speed
8 6 3 1 1 2 1 1 4 5 5 6 7 8 7 5 4 4 2 5 7 7 6 8 10 9 9 9 9 9 9 8 8 8 8 9 9 9 9 9 9 9 9 9 9 10 10 9 10
5 5 2 0 2 2 1 2 6 6 9 9 9 9 8 6 5 6 3 5 7 7 5 7 10 9 9 9 9 9 9 8 8 8 8 8 8 8 8 8 8 8 8 9 9 9 9 9 9
5 4 1 1 1 1 1 2 6 7 8 7 5 5 5 4 5 4 5 8 7 6 4 6 10 9 9 9 8 8 8 8 8 8 8 8 8 8 8 8 8 8 8 8 8 8 9 8 9
2 1 1 1 1 2 3 3 7 9 8 7 7 6 4 3 4 6 9 9 7 5 4 6 9 8 8 9 9 8 8 8 8 7 7 7 7 7 7 7 8 8 7 7 7 7 8 8 8
1 1 2 1 1 1 3 4 6 8 5 7 9 7 4 3 8 10 10 9 7 5 3 5 8 7 7 8 9 9 8 8 7 7 7 7 6 6 7 7 8 7 7 7 6 6 7 7 8
1 2 2 1 1 2 3 6 9 11 10 8 8 7 3 4 8 9 9 7 7 6 4 4 7 7 7 8 9 9 8 8 7 7 7 6 6 5 5 6 7 7 7 6 6 6 6 7 8
2 1 1 1 1 2 4 6 8 9 8 5 7 6 3 3 6 8 7 6 5 5 4 2 2 4 7 8 9 9 8 7 7 7 6 6 5 4 4 5 6 6 6 6 5 5 6 7 8
2 1 2 0 1 1 3 5 7 9 7 7 6 6 4 5 6 8 7 6 5 4 3 3 2 2 3 4 8 8 8 7 6 6 5 5 4 4 4 3 4 5 5 5 5 5 5 6 7
2 2 2 2 3 1 2 7 6 6 8 6 6 6 8 9 9 9 7 6 5 4 3 2 2 2 3 3 5 6 6 6 5 4 4 3 0 1 2 4 4 4 3 3 3 3 4 5 5
3 2 5 4 4 4 3 5 4 5 8 8 9 9 10 9 10 9 8 6 5 4 3 2 3 3 3 3 3 2 2 2 2 2 2 1 1 1 2 3 3 3 2 2 2 2 2 3 2
5 5 4 4 3 3 4 4 4 8 6 8 11 11 9 9 9 8 7 6 5 5 4 3 3 3 3 2 3 2 2 2 2 2 2 2 2 2 2 1 0 0 0 1 1 1 1 2 3
4 4 4 3 2 3 4 4 5 6 7 10 12 11 10 9 9 8 8 6 5 6 5 4 4 4 3 3 3 2 2 2 2 2 2 2 2 2 2 1 1 1 1 1 1 0 1 3 4
2 1 1 2 2 5 6 6 6 5 8 11 12 11 10 9 8 7 7 7 6 6 5 4 4 4 3 3 3 3 3 3 2 2 2 2 2 2 2 1 1 1 1 1 1 2 2 3 4
3 2 2 2 4 5 8 5 6 5 8 10 11 9 9 9 9 8 7 6 6 5 4 4 4 4 4 3 3 3 3 3 3 2 2 3 2 2 2 2 2 2 2 1 2 2 2 2 3
1 1 2 2 2 4 8 4 5 7 8 9 9 9 9 8 8 9 8 7 6 5 4 4 4 4 4 4 3 3 3 3 3 2 2 3 3 3 3 2 2 2 2 2 2 3 3 3 3
2 2 1 3 3 4 7 4 5 8 10 8 8 9 9 7 7 8 8 7 6 6 5 4 5 4 4 4 3 3 3 3 2 2 2 3 3 3 3 2 2 2 2 2 2 3 3 3 3
3 1 3 3 2 4 4 4 5 6 8 8 8 8 8 7 6 6 8 8 7 6 6 5 5 4 3 3 3 3 3 3 2 2 2 3 3 3 3 2 2 2 2 2 3 3 3 3 3
4 3 3 2 2 4 4 3 5 6 8 8 8 8 8 8 7 7 7 8 7 6 6 5 5 4 3 3 3 3 3 3 3 2 2 3 3 3 3 2 2 3 3 3 3 3 3 2 2
5 3 3 3 2 3 3 3 4 4 5 6 6 7 8 8 7 7 8 8 7 6 6 5 5 4 3 3 2 2 2 2 2 2 3 3 3 3 3 3 3 3 3 3 3 3 3 3 2
5 3 2 1 1 3 2 2 2 3 5 7 7 7 7 7 6 7 6 7 7 7 6 5 5 4 3 2 2 2 2 2 2 2 3 4 4 3 3 3 3 3 3 4 3 3 3 2 2
5 5 5 4 2 2 3 2 2 1 3 5 7 7 6 10 10 9 8 7 7 7 6 6 5 4 4 3 3 3 3 3 3 3 2 3 3 3 3 4 3 3 3 2 2 2 3 2 1
6 6 6 5 4 1 3 1 5 2 1 4 5 6 7 8 9 9 9 9 8 7 6 6 5 4 4 4 4 5 4 2 1 1 1 2 3 3 3 3 3 3 2 2 1 2 1 2 1
7 5 3 3 3 2 1 3 6 1 2 5 7 8 8 8 9 10 10 10 8 8 7 6 5 4 4 4 5 5 3 2 1 2 3 2 2 2 3 3 3 3 2 2 2 2 2 1 1
3 2 4 5 5 1 3 3 4 3 6 5 6 8 9 8 8 8 8 8 7 7 7 6 5 4 4 4 4 5 5 4 3 3 2 1 1 1 2 2 2 2 1 1 1 1 2 1 1
1 4 4 5 4 3 2 2 6 6 4 5 6 7 8 9 9 8 8 8 8 9 8 6 6 4 4 4 4 4 4 4 4 3 3 2 1 1 0 1 1 1 1 1 1 1 1 1 1
2 8 7 4 3 3 2 2 5 2 1 3 5 7 7 7 8 10 10 9 10 10 9 8 7 5 4 4 3 3 3 3 2 3 3 2 2 1 1 1 1 1 1 1 1 1 1 1 1
2 2 7 8 3 2 2 2 4 2 1 3 5 6 6 6 7 8 8 8 9 9 9 9 8 6 5 4 4 3 3 3 3 3 2 2 1 1 1 1 2 1 1 1 1 1 1 1 1
5 5 5 5 4 1 1 2 4 4 2 3 4 5 5 5 6 6 7 7 8 8 8 8 7 7 5 5 4 4 3 3 3 3 3 2 2 2 2 2 2 1 1 1 1 1 1 1 1
1 2 4 4 5 7 3 5 5 7 6 5 5 5 6 6 7 7 6 6 7 7 8 8 7 6 5 5 4 4 3 3 3 2 2 2 2 2 2 1 2 1 1 1 1 1 1 1 1
4 3 5 4 2 4 5 5 3 5 5 5 4 4 4 5 5 6 6 6 7 7 7 7 7 6 5 5 4 4 3 3 3 2 2 2 2 2 2 2 2 1 1 1 1 1 1 1 1
Wind_Direction
168 160 160 192 5 36 29 58 104 80 69 70 78 82 79 68 91 131 194 139 128 141 155 148 143 141 137 135 133 130 132 132 130 127 129 131 134 138 141 145 149 152 155 158 157 155 155 155 156
162 167 179 24 48 45 13 71 82 89 115 109 84 82 76 72 84 111 122 136 134 140 148 150 146 141 136 135 137 134 136 138 136 133 134 135 137 139 142 146 150 154 157 159 158 159 159 159 160
181 195 169 35 360 155 159 99 107 104 101 96 88 66 68 93 106 127 147 137 129 134 146 152 143 141 141 142 143 142 140 142 144 142 141 141 143 143 145 149 153 154 157 160 160 163 166 169 171
175 159 42 50 282 239 161 123 106 97 76 73 89 67 56 74 109 132 135 133 128 129 139 144 140 145 148 150 148 144 142 142 143 143 144 146 147 149 152 152 153 155 158 162 165 169 173 177 177
90 67 38 348 322 70 113 117 97 96 78 85 90 92 74 55 109 123 130 131 129 129 131 139 137 140 144 148 150 146 142 138 136 137 138 143 145 146 151 153 156 160 163 167 170 176 180 182 179
64 60 45 337 24 64 100 105 98 97 104 105 100 103 100 115 119 130 133 131 133 135 136 138 139 132 135 141 143 143 139 136 132 127 128 133 135 141 151 159 164 166 168 173 178 185 186 184 182
97 73 251 250 55 102 109 101 106 118 117 119 123 106 118 122 129 129 126 123 125 128 129 133 139 130 129 131 135 136 136 135 128 124 124 131 139 150 160 169 172 174 179 183 187 190 193 187 183
158 95 306 203 115 98 105 93 111 120 113 122 115 121 146 165 129 120 110 109 115 110 114 122 114 97 113 130 136 135 132 130 126 127 128 135 148 164 170 171 170 176 188 194 195 196 192 187 183
127 73 279 235 165 168 83 89 89 93 103 98 92 114 136 134 118 109 96 89 96 99 94 106 111 111 116 124 132 137 135 128 126 126 117 116 135 198 181 175 176 180 185 190 196 199 195 196 192
155 169 226 241 180 153 117 113 115 94 91 89 93 105 121 119 114 113 113 112 105 109 107 100 108 115 112 125 115 111 114 106 94 82 86 71 46 114 128 163 176 179 182 202 215 221 212 203 175
178 200 234 242 190 138 129 120 102 119 114 131 132 132 132 121 116 116 117 117 115 117 110 102 108 108 107 98 99 92 87 91 86 81 79 77 59 62 71 78 77 65 31 345 335 330 127 143 146
183 212 209 231 176 128 132 119 103 121 145 145 140 137 131 125 124 127 124 119 110 101 99 97 102 95 93 98 98 102 100 94 87 82 83 84 73 70 78 83 59 45 27 23 343 77 99 124 140
149 205 198 195 129 128 107 101 109 107 133 132 129 128 128 127 127 125 126 122 112 105 102 103 98 94 93 91 90 93 95 104 103 89 78 91 97 87 81 74 71 62 56 52 39 79 92 109 127
205 187 210 207 143 131 114 107 102 130 134 136 134 133 134 135 132 125 122 121 120 120 115 109 96 94 93 90 85 85 92 94 92 85 88 96 101 98 91 75 60 54 52 57 60 77 90 107 125
101 86 317 221 145 146 118 94 134 152 139 137 140 140 138 138 136 138 143 139 137 134 127 117 113 94 91 89 88 87 86 89 87 84 82 90 96 95 92 83 65 52 54 49 52 63 74 83 105
25 57 309 260 161 153 114 151 185 161 145 144 146 147 142 143 148 147 145 143 140 131 127 122 117 98 92 91 88 83 78 80 80 80 80 84 91 93 91 83 63 45 48 52 59 64 68 68 86
16 334 253 255 197 151 123 170 198 171 148 147 149 151 144 142 145 147 146 146 143 137 133 123 113 110 107 98 91 84 81 80 76 74 72 77 83 85 90 79 61 59 60 53 58 60 74 81 83
257 267 274 245 227 132 133 177 187 172 148 149 153 155 150 152 161 157 150 147 141 133 132 128 116 113 110 97 85 74 70 66 63 70 73 77 81 84 86 82 59 64 68 55 54 60 60 76 81
226 242 269 263 220 125 154 170 183 177 143 145 156 162 162 165 164 158 155 147 140 134 130 127 119 118 113 104 100 95 89 78 63 65 69 76 77 78 80 75 60 60 67 61 62 67 65 55 58
229 230 264 332 118 116 149 185 198 160 163 164 165 172 171 158 156 157 155 152 147 145 138 129 128 128 123 128 127 121 118 104 95 57 53 63 71 72 80 70 64 61 69 56 53 69 66 58 55
248 206 201 169 126 72 104 355 316 225 172 174 173 169 170 170 166 166 162 164 155 150 149 143 137 131 125 117 103 93 74 57 48 47 50 53 69 69 71 73 76 70 74 69 54 63 85 84 20
257 228 192 180 138 192 146 206 283 243 237 201 182 172 177 175 170 172 169 165 162 155 145 135 134 126 121 117 117 120 119 114 122 112 83 63 63 69 75 78 76 73 72 79 73 70 75 104 81
239 231 172 153 124 86 35 131 280 286 219 213 189 179 178 173 174 174 171 164 158 152 144 137 130 124 122 123 129 125 119 123 111 94 87 72 53 61 73 80 79 75 70 67 55 53 61 89 118
238 39 40 55 73 62 242 149 261 239 223 211 187 171 174 168 159 162 159 151 150 146 141 139 132 127 125 125 128 130 131 126 116 111 110 95 65 55 61 85 84 89 82 73 62 64 72 74 79
69 85 32 5 15 261 251 131 244 247 223 179 177 171 169 163 157 154 157 162 157 151 149 145 139 133 135 130 130 136 140 138 140 148 144 132 107 82 74 95 96 87 75 78 66 66 46 47 69
214 136 154 189 207 269 328 242 266 259 180 145 151 155 159 159 166 167 169 170 162 158 155 152 150 148 148 142 140 136 136 137 139 145 145 150 155 157 140 113 105 81 69 62 53 53 25 42 52
175 183 165 136 131 102 293 298 318 343 63 128 141 136 151 159 165 162 166 163 162 162 162 159 155 152 154 153 139 129 134 134 139 141 140 142 140 126 97 103 107 95 82 72 77 55 7 38 33
166 156 90 105 133 150 295 257 223 236 218 171 164 161 165 155 158 156 157 160 163 162 158 154 155 159 159 152 150 143 140 136 133 131 134 138 137 114 105 96 99 91 80 77 77 45 15 53 18
58 74 103 116 147 147 189 263 223 190 195 177 175 172 170 157 162 162 157 158 153 151 153 153 155 150 150 153 147 141 143 141 133 136 146 150 140 131 138 133 112 99 82 73 70 42 41 51 23
158 160 138 141 210 143 149 258 267 184 178 162 171 162 148 154 157 154 147 143 145 149 158 160 162 160 163 158 147 148 147 143 143 152 159 151 148 158 152 126 106 105 93 73 76 43 31 62 43